[[{"header":{"parameterUnit":"m.s-1","parameterCategory":1,"la1":30.2991,"la2":30.254,"lo1":-89.0895,"lo2":-89.0444,"dy":0.0017,"dx":0.0017,"nx":28,"ny":28,"refTime":"2024-07-26T21:00:00:Z","depth":0,"parameterNumber":2,"parameterNumberName":"U-component_of_WINDS"},"data":[0,0,0,0,0,0,0,0,0,0,0,0,0,0,0,0,0,0,0,0,0,0,0,0,0,0,0,0,0,0,0,0,0,0,0,0,0,0,0,0,0,0,0,0,0,0,0,0,0,0,0,0,0,0,0,0,0,0,-1.3887,-1.3888,0,-1.3912,-1.3913,-1.3913,-1.3908,-1.3907,-1.3907,-1.3907,-1.3934,-1.3935,-1.3936,0,0,0,0,0,0,0,0,0,0,0,0,0,-1.3837,-1.3837,-1.3887,-1.3888,-1.3888,-1.3912,-1.3913,-1.3913,-1.3908,-1.3907,-1.3907,-1.3906,-1.3933,-1.3935,-1.3936,0,0,0,0,0,0,0,0,0,0,0,0,0,-1.386,-1.3838,-1.3887,-1.3888,-1.3889,-1.3912,-1.3913,-1.3913,-1.3908,-1.3907,-1.3907,-1.3906,-1.3933,-1.3934,-1.3936,-1.396,0,0,-1.3941,-1.3942,0,0,0,0,0,0,0,0,-1.3858,-1.3862,-1.3888,-1.3888,-1.3889,-1.3906,-1.3905,-1.3929,-1.3908,-1.3901,-1.3907,-1.3906,-1.3925,-1.3927,-1.3934,-1.3962,-1.3963,-1.3942,-1.3943,-1.3943,-1.3944,0,0,0,0,0,0,0,-1.3857,-1.3861,-1.3897,-1.3888,-1.3889,-1.3888,-1.3891,-1.3909,-1.3917,-1.3901,-1.3901,-1.3904,-1.3925,-1.3932,-1.3934,-1.3963,-1.3941,-1.3943,-1.3944,-1.3945,-1.4012,-1.4013,0,0,0,0,0,0,-1.3855,-1.3859,-1.3896,-1.3898,-1.3872,-1.3889,-1.3892,-1.3901,-1.3916,-1.3918,-1.3905,-1.3904,-1.3929,-1.3932,-1.3935,-1.3964,-1.3943,-1.3945,-1.3946,-1.4011,-1.4012,-1.4013,0,0,0,0,0,0,-1.3854,-1.3858,-1.3895,-1.3879,-1.3883,-1.3891,-1.3901,-1.3902,-1.3909,-1.3919,-1.392,-1.391,-1.3929,-1.3933,-1.3954,-1.3965,-1.3946,-1.3947,-1.401,-1.4011,-1.4012,-1.4023,0,0,0,0,0,0,-1.3852,-1.3858,-1.3867,-1.3879,-1.3884,-1.3914,-1.3902,-1.3903,-1.3912,-1.3911,-1.3924,-1.3926,-1.3929,-1.3951,-1.3956,-1.3967,-1.3949,-1.4009,-1.4011,-1.4012,-1.4022,-1.4024,-1.4026,0,0,0,0,0,-1.385,-1.3869,-1.3867,-1.3872,-1.3896,-1.3914,-1.3917,-1.392,-1.3913,-1.3922,-1.3928,-1.3925,-1.3963,-1.3954,-1.3958,-1.3971,-1.4009,-1.401,-1.4012,-1.402,-1.4024,-1.4026,0,0,0,0,0,0,-1.3859,-1.3871,-1.3869,-1.3892,-1.3902,-1.3913,-1.3925,-1.3923,-1.3936,-1.3935,-1.3938,-1.3941,-1.3962,-1.3969,-1.3958,-1.3995,-1.3985,-1.3988,-1.399,-1.3993,-1.3995,-1.3993,-1.395,0,0,0,0,0,-1.3864,-1.3877,-1.3887,-1.3907,-1.3912,-1.3918,-1.3926,-1.3927,-1.3938,-1.3942,-1.395,-1.3961,-1.3975,-1.3984,-1.3998,-1.4022,-1.4025,-1.4033,-1.4035,-1.4037,-1.404,-1.4053,-1.4056,-1.4018,-1.4018,-1.4018,0,0,-1.3874,-1.3882,-1.389,-1.3909,-1.3916,-1.3931,-1.3921,-1.3937,-1.3948,-1.3945,-1.3965,-1.3971,-1.3983,-1.4006,-1.4016,-1.4012,-1.4051,-1.404,-1.4041,-1.4042,-1.4055,-1.4058,-1.4062,-1.402,-1.4019,-1.4019,0,0,-1.3899,-1.3906,-1.3923,-1.3931,-1.3942,-1.3946,-1.395,-1.3962,-1.3965,-1.3985,-1.3983,-1.3996,-1.4021,-1.4029,-1.4037,-1.4064,-1.4062,-1.4069,-1.4082,-1.4094,-1.4097,-1.41,-1.4109,-1.4113,-1.4071,-1.4071,-1.4071,0,-1.391,-1.3931,-1.3932,-1.3948,-1.3956,-1.3953,-1.397,-1.3977,-1.3993,-1.3999,-1.3994,-1.4024,-1.4032,-1.4057,-1.4063,-1.407,-1.4074,-1.4067,-1.4096,-1.4099,-1.4102,-1.4111,-1.4114,-1.4072,-1.4072,-1.4072,-1.4072,0,-1.3943,-1.3958,-1.397,-1.3984,-1.3994,-1.401,-1.4014,-1.4024,-1.4024,-1.4028,-1.4048,-1.4058,-1.4073,-1.4079,-1.408,-1.4104,-1.41,-1.4096,-1.4086,-1.4106,-1.4114,-1.4118,-1.4073,-1.4073,-1.4072,-1.4072,0,0,-1.3975,-1.3989,-1.3994,-1.4,-1.4012,-1.4024,-1.404,-1.4054,-1.4062,-1.4073,-1.4087,-1.4107,-1.4103,-1.4111,-1.4113,-1.4124,-1.4144,-1.4118,-1.4118,-1.4122,-1.4171,-1.4174,-1.4178,-1.4143,-1.4143,-1.4144,-1.417,0,-1.4001,-1.4029,-1.403,-1.4056,-1.4069,-1.4066,-1.408,-1.4089,-1.4093,-1.4105,-1.411,-1.4125,-1.4118,-1.4123,-1.4134,-1.4139,-1.4154,-1.4138,-1.4155,-1.4156,-1.4152,-1.4183,-1.4186,-1.421,-1.4173,-1.4174,-1.4174,0,-1.4036,-1.4047,-1.4073,-1.4082,-1.4088,-1.4101,-1.4113,-1.4125,-1.4135,-1.4137,-1.4147,-1.4146,-1.4163,-1.4152,-1.4175,-1.4164,-1.4171,-1.4175,-1.4176,-1.4178,-1.4166,-1.4185,-1.4218,-1.4221,-1.4179,-1.4179,-1.4179,0,-1.4056,-1.4078,-1.4096,-1.4101,-1.4113,-1.4122,-1.4127,-1.4136,-1.4145,-1.4156,-1.4161,-1.4175,-1.4182,-1.4192,-1.4196,-1.4188,-1.4218,-1.4208,-1.4221,-1.4221,-1.4227,-1.4227,-1.4262,-1.4232,-1.4232,-1.4232,-1.4232,0,-1.4085,-1.4102,-1.4105,-1.4116,-1.4134,-1.4136,-1.4154,-1.4158,-1.4167,-1.4179,-1.4177,-1.4189,-1.4192,-1.4205,-1.4207,-1.4226,-1.4229,-1.4232,-1.4232,-1.4232,-1.4231,-1.4237,-1.4235,-1.4233,-1.4233,-1.4233,-1.4233,0,-1.4112,-1.4115,-1.4134,-1.4143,-1.4146,-1.4159,-1.4166,-1.4177,-1.4181,-1.4196,-1.42,-1.4206,-1.422,-1.4224,-1.4242,-1.4244,-1.4265,-1.4264,-1.4261,-1.4261,-1.4274,-1.4272,-1.4313,-1.4318,-1.4285,-1.4286,-1.4286,0,-1.413,-1.4142,-1.4152,-1.416,-1.4165,-1.4178,-1.4186,-1.4187,-1.4196,-1.4208,-1.4217,-1.4231,-1.4242,-1.4265,-1.4272,-1.4285,-1.4284,-1.4297,-1.4286,-1.4285,-1.4284,-1.4283,-1.4284,-1.43,-1.43,-1.43,-1.43,0,-1.4162,-1.4163,-1.4174,-1.4186,-1.4195,-1.4204,-1.4214,-1.422,-1.4223,-1.4233,-1.4247,-1.4255,-1.4272,-1.4286,-1.4299,-1.4305,-1.4304,-1.4304,-1.4307,-1.4307,-1.4305,-1.4306,-1.4267,-1.4303,-1.4303,-1.4303,-1.4302,-1.4302,-1.4185,-1.4196,-1.4204,-1.4216,-1.4223,-1.4231,-1.4241,-1.4246,-1.4257,-1.4271,-1.4271,-1.4287,-1.4296,-1.4313,-1.432,-1.4332,-1.4328,-1.4333,-1.4335,-1.4336,-1.4337,-1.4303,-1.4334,-1.4334,-1.4334,-1.4334,-1.4334,0,-1.4218,-1.4222,-1.4234,-1.4246,-1.4255,-1.4251,-1.4261,-1.427,-1.4283,-1.4291,-1.4302,-1.4318,-1.4331,-1.4338,-1.4351,-1.4359,-1.4358,-1.4362,-1.4362,-1.4363,-1.434,-1.4335,-1.4363,-1.4363,-1.4363,-1.4363,-1.4363,-1.4363,-1.4236,-1.4253,-1.4254,-1.4274,-1.4279,-1.4293,-1.4299,-1.4306,-1.4313,-1.4331,-1.4341,-1.4345,-1.4353,-1.4366,-1.4378,-1.438,-1.4384,-1.4389,-1.439,-1.4368,-1.4365,-1.4362,-1.4358,-1.439,-1.439,-1.4413,-1.4413,-1.4413]},{"header":{"parameterUnit":"m.s-1","parameterCategory":1,"la1":30.2991,"la2":30.254,"lo1":-89.0895,"lo2":-89.0444,"dy":0.0017,"dx":0.0017,"nx":28,"ny":28,"refTime":"2024-07-26T21:00:00:Z","depth":0,"parameterNumber":3,"parameterNumberName":"V-component_of_WINDS"},"data":[0,0,0,0,0,0,0,0,0,0,0,0,0,0,0,0,0,0,0,0,0,0,0,0,0,0,0,0,0,0,0,0,0,0,0,0,0,0,0,0,0,0,0,0,0,0,0,0,0,0,0,0,0,0,0,0,0,0,1.1513,1.1513,0,1.1509,1.1509,1.1509,1.1476,1.1475,1.1474,1.1474,1.147,1.147,1.1471,0,0,0,0,0,0,0,0,0,0,0,0,0,1.1494,1.1494,1.1513,1.1513,1.1513,1.1509,1.1509,1.1509,1.1476,1.1475,1.1474,1.1473,1.1469,1.147,1.1471,0,0,0,0,0,0,0,0,0,0,0,0,0,1.1497,1.1494,1.1513,1.1496,1.1495,1.1509,1.1509,1.1509,1.1476,1.1475,1.1474,1.1473,1.1469,1.147,1.1471,1.1501,0,0,1.1474,1.1474,0,0,0,0,0,0,0,0,1.1497,1.1498,1.1499,1.1498,1.1496,1.1492,1.15,1.1506,1.1477,1.1483,1.1473,1.1472,1.1478,1.1478,1.148,1.1501,1.1501,1.1474,1.1475,1.1475,1.1475,0,0,0,0,0,0,0,1.1497,1.1498,1.1512,1.1499,1.1497,1.1489,1.1488,1.1501,1.1488,1.1483,1.148,1.148,1.1477,1.1479,1.148,1.1501,1.1474,1.1475,1.1476,1.1476,1.1546,1.1547,0,0,0,0,0,0,1.1499,1.1498,1.1512,1.1511,1.1493,1.149,1.1489,1.1494,1.1487,1.1485,1.1481,1.1479,1.1478,1.1479,1.1479,1.1514,1.1475,1.1476,1.1477,1.1545,1.1546,1.1548,0,0,0,0,0,0,1.1498,1.15,1.1512,1.1504,1.1505,1.1492,1.1498,1.1495,1.1497,1.1486,1.1484,1.1486,1.1477,1.1478,1.1496,1.1513,1.1476,1.1477,1.1543,1.1545,1.1547,1.1584,0,0,0,0,0,0,1.1498,1.15,1.1512,1.1504,1.1505,1.1529,1.1499,1.1496,1.1499,1.1495,1.149,1.1488,1.1476,1.1495,1.1497,1.1514,1.1478,1.1542,1.1544,1.1546,1.1581,1.1586,1.1591,0,0,0,0,0,1.1497,1.1523,1.1513,1.1514,1.1519,1.153,1.153,1.1516,1.15,1.1511,1.1504,1.1488,1.1511,1.1497,1.1499,1.1517,1.154,1.1543,1.1546,1.1578,1.1585,1.1591,0,0,0,0,0,0,1.1533,1.1521,1.151,1.1534,1.1533,1.1524,1.1538,1.1524,1.1528,1.1525,1.1507,1.1506,1.1527,1.1523,1.1508,1.1545,1.1523,1.1526,1.1547,1.1553,1.1558,1.1559,1.1479,0,0,0,0,0,1.1543,1.1552,1.1542,1.1564,1.1564,1.1551,1.1555,1.1544,1.1543,1.1542,1.1536,1.1536,1.1543,1.1548,1.1554,1.158,1.1578,1.1593,1.1599,1.1603,1.1606,1.162,1.1626,1.1557,1.1557,1.1557,0,0,1.1565,1.156,1.1567,1.1571,1.1569,1.1579,1.1551,1.1563,1.157,1.1544,1.156,1.1556,1.1554,1.1576,1.1586,1.1574,1.1625,1.1607,1.161,1.1611,1.1623,1.163,1.1636,1.1559,1.1559,1.1558,0,0,1.161,1.1607,1.1625,1.1623,1.162,1.1611,1.1616,1.1609,1.1605,1.1621,1.1602,1.161,1.1622,1.1622,1.1623,1.1667,1.1652,1.1669,1.1697,1.171,1.1716,1.172,1.1736,1.1742,1.1672,1.1673,1.1673,0,1.1638,1.1652,1.1635,1.1648,1.165,1.1627,1.1644,1.1644,1.1643,1.1645,1.1632,1.1647,1.1644,1.1666,1.1676,1.1678,1.1682,1.167,1.1716,1.1721,1.1725,1.1739,1.1745,1.1675,1.1674,1.1674,1.1674,0,1.1685,1.1695,1.171,1.1709,1.1713,1.1728,1.1714,1.172,1.1709,1.1701,1.1718,1.1713,1.1718,1.1722,1.1711,1.1742,1.1734,1.1719,1.1696,1.1734,1.1747,1.1753,1.1678,1.1677,1.1676,1.1676,0,0,1.1753,1.1743,1.1748,1.1747,1.1742,1.175,1.1764,1.1767,1.1773,1.1773,1.1784,1.1795,1.178,1.1782,1.1771,1.1782,1.1817,1.1765,1.1765,1.1775,1.185,1.1861,1.1868,1.1807,1.1808,1.1809,1.185,0,1.1796,1.1819,1.1804,1.1829,1.1838,1.1816,1.1828,1.1826,1.1819,1.1826,1.1818,1.1826,1.1807,1.1807,1.1818,1.181,1.1832,1.1807,1.1817,1.1818,1.1818,1.1875,1.1887,1.1926,1.1855,1.1856,1.1856,0,1.1849,1.1851,1.1877,1.1869,1.1872,1.1884,1.1885,1.1892,1.1889,1.1884,1.1885,1.1871,1.1884,1.1861,1.1879,1.1863,1.1866,1.1863,1.1864,1.1864,1.1839,1.1877,1.1939,1.1945,1.1865,1.1864,1.1863,0,1.1895,1.1904,1.1921,1.1921,1.1913,1.1921,1.1918,1.1914,1.1917,1.1919,1.192,1.1924,1.1926,1.1929,1.1916,1.1901,1.1935,1.1912,1.1931,1.1931,1.1939,1.1939,1.2003,1.1942,1.1942,1.1941,1.1941,0,1.1945,1.1961,1.1941,1.1952,1.197,1.1953,1.1971,1.1966,1.1962,1.1971,1.1952,1.196,1.1943,1.195,1.194,1.1956,1.1957,1.1952,1.195,1.1954,1.1955,1.1956,1.1953,1.1943,1.1943,1.1942,1.1942,0,1.2,1.1987,1.2003,1.1994,1.1992,1.2005,1.1997,1.2006,1.1998,1.2009,1.2011,1.1998,1.2005,1.1992,1.1998,1.1991,1.2013,1.2006,1.2014,1.2012,1.2032,1.203,1.2098,1.2106,1.2041,1.2041,1.2042,0,1.2032,1.2044,1.2035,1.204,1.2038,1.2045,1.2047,1.2031,1.2035,1.2032,1.2042,1.2047,1.205,1.2062,1.2054,1.2058,1.2051,1.2074,1.2051,1.2055,1.2051,1.205,1.2051,1.2079,1.208,1.208,1.2081,0,1.209,1.2083,1.2088,1.209,1.2094,1.2095,1.2094,1.2099,1.2082,1.2087,1.2093,1.2096,1.2101,1.2107,1.2108,1.2105,1.209,1.2088,1.2093,1.2098,1.2102,1.2099,1.2027,1.2087,1.2086,1.2086,1.2086,1.2085,1.2135,1.2144,1.214,1.2145,1.2143,1.2143,1.2151,1.2143,1.2148,1.2151,1.2141,1.215,1.2146,1.2147,1.2145,1.2152,1.2142,1.2148,1.215,1.2152,1.2155,1.21,1.2152,1.2152,1.2152,1.2152,1.2152,0,1.2192,1.2188,1.2193,1.2193,1.2197,1.2182,1.2181,1.2185,1.2193,1.2191,1.2194,1.2202,1.2207,1.2198,1.2202,1.2209,1.2202,1.221,1.2209,1.2209,1.2164,1.216,1.2215,1.2215,1.2215,1.2215,1.2215,1.2215,1.2223,1.2238,1.223,1.2244,1.2239,1.2247,1.2248,1.2248,1.2246,1.2254,1.2258,1.2252,1.2248,1.2251,1.2254,1.2252,1.2254,1.2265,1.226,1.2218,1.2212,1.2206,1.2202,1.2265,1.2265,1.2303,1.2304,1.2304]}]]